Tracking 19909 objects as of 21-Oct-2019
HD Live streaming from Space Station
objects crossing your sky now

NOAA 16 DEB

Track NOAA 16 DEB now!
10-day predictions


NORAD ID: 42365
Int'l Code: 2000-055RH
Perigee: 783.9 km
Apogee: 864.5 km
Inclination: 98.9 °
Period: 101.2 minutes
Semi major axis: 7195 km
RCS: Unknown
Launch date: September 21, 2000
Source: United States (US)
Launch site: AIR FORCE WESTERN TEST RANGE (AFWTR)

Note: This is SATELLITE DEBRIS
aabbcc
Your satellite tracking list
Your tracking list is empty




NASA's NSSDC Master Catalog

Two Line Element Set (TLE):
1 42365U 00055RH  19291.50071722  .00000869  00000-0  40368-3 0  9993
2 42365  98.8964  30.7341 0055965  22.7156 337.6480 14.22456242190437
Source of the keplerian elements: AFSPC